Regional Weather Roundup
Issued by NWS

Home | Current Version | Previous Version | Graphics & Text | Print | Product List | Glossary Off
Versions: 1 2 3 4 5 6 7 8 9 10 11 12 13 14 15 16 17 18 19 20 21 22 23 24 25 26 27 28 29 30 31 32 33 34 35 36 37 38 39 40 41 42 43 44 45 46 47 48 49 50

000
ASUS43 KMPX 010001
RWRMN
WEATHER ROUNDUP FOR MINNESOTA
NATIONAL WEATHER SERVICE TWIN CITIES/CHANHASSEN MN
600 PM CST SAT JAN 31 2015


NOTE: "FAIR" INDICATES FEW OR NO CLOUDS BELOW 12,000 FEET WITH NO
SIGNIFICANT WEATHER AND/OR OBSTRUCTIONS TO VISIBILITY. N/A MEANS
CURRENT SKY AND/OR WEATHER CONDITIONS ARE NOT AVAILABLE.

MNZ060>063-068>070-010100-
   Twin Cities Metro

CITY           SKY/WX    TMP DP  RH WIND       PRES   REMARKS
TWIN CITIES    CLOUDY    27  16  63 NE7       30.19S WCI  19
6HR MIN TEMP:  27; 6HR MAX TEMP:  28;

ST PAUL        CLOUDY    28  17  63 NE7       30.21S WCI  21
CRYSTAL        CLOUDY    28  15  58 NE7       30.19R WCI  21
BLAINE         MOCLDY    28  16  59 NE8       30.20R WCI  20
LAKEVILLE      CLOUDY    25  19  80 NE8       30.18R WCI  16
EDEN PRAIRIE   CLOUDY    27  17  66 NE7       30.18R WCI  19
6HR MIN TEMP:  27; 6HR MAX TEMP:  29;

SOUTH ST PAUL  CLOUDY    28  19  67 CALM      30.19S
LAKE ELMO      FAIR      28  19  69 NE10      30.21R WCI  19
$$
MNZ001>005-007-008-013>017-022>024-027-028-010100-
   Northwest Minnesota

CITY           SKY/WX    TMP DP  RH WIND       PRES   REMARKS
BEMIDJI        MOCLDY     2  -6  69 N9        30.34R WCI -12
HALLOCK        PTCLDY    -8 -17  65 N14       30.50S WCI -28
ROSEAU         MOCLDY    -2 -11  65 N7        30.46R WCI -16
WARROAD        PTCLDY    -2 -13  60 NE10      30.45R WCI -19
THIEF RVR FALL PTCLDY     1  -9  60 N14       30.40R WCI -17
CROOKSTON      PTCLDY     3  -9  55 NE14G20   30.45R WCI -15
FOSSTON        MOCLDY     3  -2  78 N13       30.36R WCI -14
DETROIT LAKES  CLOUDY    14  -2  48 NE10      30.30R WCI   1
MOORHEAD       CLOUDY     9  -2  61 N17G23    30.37R WCI -10
PARK RAPIDS    PTCLDY    10  -3  55 NE8       30.29R WCI  -2
MAHNOMEN       FAIR       5  -4  66 N13       30.33R WCI -12
$$
MNZ006-009>011-018-025>026-010100-
   North Central Minnesota

CITY           SKY/WX    TMP DP  RH WIND       PRES   REMARKS
BAUDETTE       MOCLDY    -4 -13  65 N8        30.42R WCI -19
FLAG ISLAND    PTCLDY    -6 -15  65 N8        30.46R WCI -21
INTL FALLS     PTCLDY    -1 -12  59 N6        30.40R WCI -13
6HR MIN TEMP:  -1; 6HR MAX TEMP:   6;

WASKISH        MOCLDY    -2  -9  71 N8        30.39R WCI -17
BIG FORK       PTCLDY     7  -8  51 N6        30.35R WCI  -3
LONGVILLE      PTCLDY    10   0  61 N6        30.29R WCI   1
GRAND RAPIDS   PTCLDY    10  -6  48 N10       30.29R WCI  -3
CRANE LAKE     PTCLDY    -2 -11  65 CALM      30.40R
ORR            PTCLDY     1  -9  60 CALM      30.33R
COOK           PTCLDY     3  -6  66 N3        30.33R
WALKER         FAIR       7  -3  63 N8        30.31R WCI  -6
$$
MNZ012-019>021-037-010100-
   Northeast Minnesota

CITY           SKY/WX    TMP DP  RH WIND       PRES   REMARKS
DULUTH         PTCLDY    13  -2  51 N9        30.26R WCI   1
6HR MIN TEMP:  13; 6HR MAX TEMP:  20;

ELY            CLEAR      1  -8  66 N3        30.32R
HIBBING        PTCLDY     9  -8  46 N8        30.31R WCI  -3
EVELETH        FAIR       9  -4  56 N5        30.32R WCI   0
DULUTH HARBOR  MOCLDY    19   7  58 N16       30.33R WCI   5
TWO HARBORS    CLEAR     16   0  48 N5        30.28R WCI   9
SILVER BAY     CLEAR     10  -6  48 N6        30.30R WCI   1
GRAND MARAIS     N/A      8  -7  50 NE7       30.38R WCI  -3
G MARAIS ARPRT CLEAR      0 -11  60 N6        30.25R WCI -12
$$
MNZ029>031-032-039>041-046>048-054>057-064-010100-
   West Central Minnesota

CITY           SKY/WX    TMP DP  RH WIND       PRES   REMARKS
FERGUS FALLS   CLOUDY    14   0  52 N13       30.30S WCI   0
WHEATON        CLOUDY    12   3  67 N17G24    30.27S WCI  -5
MORRIS         CLOUDY    25   7  46 NE15      30.19F WCI  12
ALEXANDRIA     CLOUDY    21  -1  38 NE13      30.20F WCI   9
ELBOW LAKE     CLOUDY    19   1  46 N13G18    30.22F WCI   6
WADENA         MOCLDY    14  -4  44 NE9       30.26R WCI   2
GLENWOOD       CLOUDY    21   7  53 NE13G18   30.19S WCI   9
APPLETON       CLOUDY    27  10  50 NE12      30.18S WCI  16
BENSON         CLOUDY    27   5  39 E8        30.18F WCI  18
ORTONVILLE     CLOUDY    19   9  63 N18       30.19S WCI   4
MADISON        CLOUDY    28  21  74 NE7       30.17S WCI  21
WILLMAR        FAIR      27  16  63 NE8       30.18S WCI  18
$$
MNZ033>034-036-042>043-049>051-058-059-010100-
   Central Minnesota

CITY           SKY/WX    TMP DP  RH WIND       PRES   REMARKS
ST CLOUD       CLOUDY    24   8  50 N10       30.21R WCI  14
6HR MIN TEMP:  24; 6HR MAX TEMP:  29;

SAUK CENTRE    CLOUDY    23   6  48 NE8G20    30.20F WCI  13
PAYNESVILLE    CLOUDY    22   8  54 N9        30.19S WCI  12
AITKIN         PTCLDY    19   3  49 N6        30.26R WCI  11
PINE RIVER     MOCLDY    12   1  62 N8        30.31R WCI   1
BRAINERD       PTCLDY    18   3  52 N10       30.26R WCI   6
STAPLES        MOCLDY    12  -2  52 N7        30.26R WCI   2
LONG PRAIRIE   CLOUDY    21   5  49 N12G17    30.22R WCI   9
LITTLE FALLS   CLOUDY    23   3  42 NE5       30.23S WCI  17
LITCHFIELD     CLOUDY    27  19  74 CALM      30.18S
BUFFALO        CLOUDY    27  14  58 NE9       30.20S WCI  17
MAPLE LAKE     CLOUDY    28  13  52 NE9       30.20S WCI  19
$$
MNZ037-044-045-052-053-010100-
   East Central Minnesota

CITY           SKY/WX    TMP DP  RH WIND       PRES   REMARKS
PRINCETON      CLOUDY    27   9  46 N12       30.21S WCI  16
MORA           MOCLDY    23   7  50 NE3       30.25S
CAMBRIDGE      CLOUDY    27  12  54 N6        30.21R WCI  20
RUSH CITY      CLOUDY    25   6  44 NE8G16    30.23S WCI  16
MOOSE LAKE     PTCLDY    18   1  49 N8        30.26R WCI   7
HINCKLEY       CLOUDY    23   7  50 N12       30.25R WCI  12
CLOQUET        PTCLDY    14  -6  41 N6        30.28R WCI   5
MCGREGOR       PTCLDY    18   3  53 N7        30.28R WCI   8
$$
MNZ071>073-080-081-089-090-097-098-010100-
   Southwest Minnesota

CITY           SKY/WX    TMP DP  RH WIND       PRES   REMARKS
MONTEVIDEO     CLOUDY    25  19  80 E5        30.18F WCI  19
GRANITE FALLS  CLOUDY    25  20  79 N12       30.17F WCI  15
CANBY          CLOUDY    25  21  85 NE8       30.16F WCI  16
MARSHALL       CLOUDY    25  19  80 NE14G21   30.14S WCI  13
REDWOOD FALLS  CLOUDY    27  21  78 NE12G17   30.14F WCI  17
OLIVIA         CLOUDY    27  21  80 NE8       30.15F WCI  18
PIPESTONE      LGT SNOW  25  23  93 E8        30.05S WCI  16
WINDOM         LGT SNOW  27  25  93 NE13G20   30.09S WCI  16
WORTHINGTON    CLOUDY    27  23  86 NE16      30.06S WCI  14
JACKSON        LGT SNOW  28  27  93 NE14      30.07S WCI  17
TRACY          CLOUDY    26  24  93 NE8       30.12S WCI  17
SLAYTON        LGT SNOW  24  24  97 NE9       30.08S WCI  15
$$
MNZ065>067-074>077-082>085-091>093-010100-
   South Central Minnesota

CITY           SKY/WX    TMP DP  RH WIND       PRES   REMARKS
MANKATO        CLOUDY    28  19  69 NE14G20   30.13F WCI  17
NEW ULM        CLOUDY    27  21  80 NE12G18   30.13F WCI  16
ST JAMES       CLOUDY    28  25  86 NE12G17   30.13S WCI  18
FAIRMONT       CLOUDY    28  25  86 NE12      30.08S WCI  18
GLENCOE        CLOUDY    27  22  81 NE3       30.16F
FARIBAULT      CLOUDY    27  21  80 NE10      30.15S WCI  17
OWATONNA       CLOUDY    28  21  74 NE9       30.13S WCI  20
WASECA         CLOUDY    28  23  80 NE13      30.13F WCI  18
ALBERT LEA     LGT SNOW  28  27  93 NE13      30.10R WCI  18
$$
MNZ078>079-086>088-094>096-010100-
   Southeast Minnesota

CITY           SKY/WX    TMP DP  RH WIND       PRES   REMARKS
ROCHESTER      CLOUDY    27  22  81 NE12      30.12S WCI  17
6HR MIN TEMP:  27; 6HR MAX TEMP:  30;

RED WING       CLOUDY    28  18  64 E3        30.19R
STANTON        CLOUDY    28  20  74 NE10      30.16S WCI  18
DODGE CENTER   CLOUDY    27  23  86 NE14      30.12S WCI  15
WINONA         CLOUDY    30  23  74 NE7       30.19R WCI  23
AUSTIN         FLURRIES  28  25  86 E10       30.10S WCI  19
PRESTON        CLOUDY    27  23  85 NE8       30.12F WCI  19
$$
ABBREVIATIONS USED IN REMARKS
   TC - TEMPERATURES IN CELSIUS
  WCI - WIND CHILL INDEX
   HX - HEAT INDEX
  VSB - VISIBILITY
$$


USA.gov is the U.S. government's official web portal to all federal, state and local government web resources and services.